Startpagina
METAR-TAF:

METAR-TAF

Vliegvelden :

Euro, Nederland

Productieplatform

breedte: 51-59-52N, lengte: 3-16-30E, hoogte: 18 m

Actueel weer

Dit bericht is 47 minuten geleden gemaakt, om 02:25 UTC
Wind 18 kt uit het westen met uitschieters tot 20 kt
Temperatuur 18°C
Vochtigheid 83%
Druk 1014 hPa
Zicht 10 km of meer

METAR: EHSA 240225Z AUTO 27018G20KT 9999 ///////// 18/15 Q1014 W19/H11

Tijdstip: 05:12 (03:12 UTC)


TAF: ontbreekt

Waarnemingen en weersverwachtingen van meer dan 4000 vliegvelden (METAR en TAF).

De beschikbare stations zijn de gele en rode punten op de kaart.

Ga met uw muis naar het station om de naam te zien.

Klik dan om waarnemingen en weersverwachtingen te zien.

kaart wijzigen: klik op de groene knoppen met een zwart kruis om in te zoomen, op de groene knop met een streepje om uit te zoomen of op de groene pijlen voor aangrenzende kaarten.


METAR-TAF: